COSMOS 1275 DEB, 12711

Orbit data source: Space-Track

COSMOS 1275 DEB, 12711 is space debris in LEO originally from a launch on Thu, 04 Jun 1981 UTC launched from the Plesetsk Missile And Space Complex (PKMTR). Debris objects in space refer to the collection of defunct objects orbiting the Earth. Examples of debris include non-operational satellites, rocket bodies, and fragments generated from explosions, collisions, or faulty payload assembly.

Loading next visibility...
Identifier
12711, 1981-053BF
Orbit
LEO
Country
Flag of CISCIS
Related business
Manufacturer
Unknown
Mission
Spacecraft
Bus & Motor
Unknown
Mass
Unknown
Launch date (UTC)
1981-06-04 (45 years ago)
Launch vehicle
Unknown
Launch site
Plesetsk Missile And Space Complex (PKMTR)
Object type
Payload
Rocket body
Debris
Shape & HBR
Unknown shape, 0.1 m
Radar Cross Section
Small (<0.1 m²)

Expand to show TLE details & history
Last TLE update: 15 hours ago

TLE from 15 hours ago
0 COSMOS 1275 DEB
1 12711U 81053BF  26094.95433409  .00000633  00000-0  63749-3 0  9991
2 12711  82.9601  73.2784 0063266 345.1873  77.5710 13.75105346233195
Epoch: 2026-04-04T22:54Z
TLE epoch observation values (Epoch: 2026-04-04T22:54:14.465Z)
Latitude
62.70469°
Longitude
-89.77621°
Altitude
982.325 km
Speed
7.371 km/s
True Right ascension
05h 48m 12s
True Declination
62° 34' 07"
Sunlit
Object was in daylight at epoch
Visualization orbit readout
Latitude
Unknown
Longitude
Unknown
Altitude
Unknown
Speed
Unknown
Apparent Right ascension
Unknown
Apparent Declination
Unknown
Sunlit
N/A
Visualization observer readout
Local Sidereal Time
20:18:49
Azimuth
Unknown
Elevation
Unknown
Doppler factor
Unknown
Orbital elements
Apogee altitude
1,024.989 km
Perigee altitude
931.905 km
Semi-major axis
7,356.584 km
Eccentricity
0.00633
Inclination
82.9601°
RAAN
73.2784°
Arg. of periapsis
345.1873°
True anomaly
78.28017°
Mean anomaly
77.571°
Eccentric anomaly
77.92547°
Mean motion
3.43977 °/min
Orbital period
104.66 mins
BSTAR
0.00063749
Loading maneuver chart data...
Computing Atmospheric mass density...

Documentation

Showing up to 5 results
|